Tracking 18942 objects as of 18-Jan-2018
HD Live streaming from Space Station
objects crossing your sky now

TRAILBLAZER 2

Track TRAILBLAZER 2 now!
10-day predictions
TRAILBLAZER 2 is classified as:


NORAD ID: 27609
Int'l Code: 2002-058E
Perigee: 613.6 km
Apogee: 669.2 km
Inclination: 64.6 °
Period: 97.4 minutes
Semi major axis: 7012 km
RCS: 1.4405 m2 (large)
Launch date: December 20, 2002
Source: United States (US)
Launch site: TYURATAM MISSILE AND SPACE COMPLEX (TTMTR)
aabbcc
Your satellite tracking list
Your tracking list is empty




NASA's NSSDC Master Catalog

Two Line Element Set (TLE):
1 27609U 02058E   18017.56616329 -.00000069 +00000-0 +10365-4 0  9999
2 27609 064.5566 064.1971 0039651 316.7563 043.0430 14.78444528813262
Source of the keplerian elements: AFSPC